Time,TemperatureF,DewpointF,PressureIn,WindDirection,WindDirectionDegrees,WindSpeedMPH,WindSpeedGustMPH,Humidity,HourlyPrecipIn,Conditions,Clouds,dailyrainin,SoftwareType,DateUTC
2013-03-15 00:00:00,40.6,35.2,30.07,WNW,291,2.0,3.0,81,0.00,,,0.00,Wunderground v.1.15,2013-03-15 05:00:00,
2013-03-15 00:07:00,41.0,35.3,30.07,WNW,289,3.0,4.0,80,0.00,,,0.00,Wunderground v.1.15,2013-03-15 05:07:00,
2013-03-15 00:13:00,41.2,35.5,30.07,WNW,289,3.0,4.0,80,0.00,,,0.00,Wunderground v.1.15,2013-03-15 05:13:00,
2013-03-15 00:19:00,41.3,35.3,30.07,WNW,289,3.0,4.0,79,0.00,,,0.00,Wunderground v.1.15,2013-03-15 05:19:00,
2013-03-15 00:24:00,41.4,35.4,30.07,WNW,289,2.0,3.0,79,0.00,,,0.00,Wunderground v.1.15,2013-03-15 05:24:00,
2013-03-15 00:30:00,41.2,35.5,30.06,WNW,289,2.0,2.0,80,0.00,,,0.00,Wunderground v.1.15,2013-03-15 05:30:00,
2013-03-15 00:35:00,40.9,35.2,30.06,WNW,289,2.0,4.0,80,0.00,,,0.00,Wunderground v.1.15,2013-03-15 05:35:00,
2013-03-15 00:42:00,40.4,35.0,30.06,WNW,289,1.0,4.0,81,0.00,,,0.00,Wunderground v.1.15,2013-03-15 05:42:00,
2013-03-15 00:52:00,40.5,35.1,30.05,WNW,289,2.0,4.0,81,0.00,,,0.00,Wunderground v.1.15,2013-03-15 05:52:00,
2013-03-15 00:58:00,40.1,34.4,30.05,WNW,289,2.0,4.0,80,0.00,,,0.00,Wunderground v.1.15,2013-03-15 05:58:00,
2013-03-15 01:04:00,39.6,34.2,30.05,WNW,289,3.0,4.0,81,0.00,,,0.00,Wunderground v.1.15,2013-03-15 06:04:00,
2013-03-15 01:09:00,39.4,34.4,30.05,WNW,289,2.0,4.0,82,0.00,,,0.00,Wunderground v.1.15,2013-03-15 06:09:00,
2013-03-15 01:15:00,39.4,34.4,30.05,WNW,289,2.0,4.0,82,0.00,,,0.00,Wunderground v.1.15,2013-03-15 06:15:00,
2013-03-15 01:20:00,39.3,34.3,30.04,WNW,289,2.0,2.0,82,0.00,,,0.00,Wunderground v.1.15,2013-03-15 06:20:00,
2013-03-15 01:26:00,38.9,33.9,30.04,WNW,289,2.0,4.0,82,0.00,,,0.00,Wunderground v.1.15,2013-03-15 06:26:00,
2013-03-15 01:32:00,38.8,33.8,30.04,WNW,289,2.0,4.0,82,0.00,,,0.00,Wunderground v.1.15,2013-03-15 06:32:00,
2013-03-15 01:37:00,39.1,34.1,30.03,WNW,289,2.0,4.0,82,0.00,,,0.00,Wunderground v.1.15,2013-03-15 06:37:00,
2013-03-15 01:43:00,39.1,33.8,30.03,WNW,285,3.0,4.0,81,0.00,,,0.00,Wunderground v.1.15,2013-03-15 06:43:00,
2013-03-15 01:48:00,39.1,33.8,30.03,WNW,285,3.0,5.0,81,0.00,,,0.00,Wunderground v.1.15,2013-03-15 06:48:00,
2013-03-15 01:53:00,39.1,33.8,30.03,WNW,284,3.0,4.0,81,0.00,,,0.00,Wunderground v.1.15,2013-03-15 06:53:00,
2013-03-15 01:59:00,39.5,33.8,30.03,WNW,294,4.0,5.0,80,0.00,,,0.00,Wunderground v.1.15,2013-03-15 06:59:00,
2013-03-15 02:04:00,39.0,33.0,30.03,WNW,298,5.0,5.0,79,0.00,,,0.00,Wunderground v.1.15,2013-03-15 07:04:00,
2013-03-15 02:09:00,38.4,33.1,30.03,WNW,298,5.0,5.0,81,0.00,,,0.00,Wunderground v.1.15,2013-03-15 07:09:00,
2013-03-15 02:15:00,38.1,33.1,30.03,WNW,298,4.0,5.0,82,0.00,,,0.00,Wunderground v.1.15,2013-03-15 07:15:00,
2013-03-15 02:21:00,38.0,33.0,30.03,WNW,298,4.0,4.0,82,0.00,,,0.00,Wunderground v.1.15,2013-03-15 07:21:00,
2013-03-15 02:26:00,37.8,32.8,30.02,WNW,298,3.0,4.0,82,0.00,,,0.00,Wunderground v.1.15,2013-03-15 07:26:00,
2013-03-15 02:32:00,37.8,32.8,30.02,WNW,298,2.0,4.0,82,0.00,,,0.00,Wunderground v.1.15,2013-03-15 07:32:00,
2013-03-15 02:38:00,37.6,32.9,30.01,WNW,298,2.0,4.0,83,0.00,,,0.00,Wunderground v.1.15,2013-03-15 07:38:00,
2013-03-15 02:44:00,37.8,33.1,30.01,WNW,298,1.0,4.0,83,0.00,,,0.00,Wunderground v.1.15,2013-03-15 07:44:00,
2013-03-15 02:49:00,37.9,33.2,30.01,WNW,298,1.0,4.0,83,0.00,,,0.00,Wunderground v.1.15,2013-03-15 07:49:00,
2013-03-15 02:55:00,37.9,33.2,30.00,WNW,298,1.0,4.0,83,0.00,,,0.00,Wunderground v.1.15,2013-03-15 07:55:00,
2013-03-15 03:01:00,37.9,32.9,30.00,WNW,298,2.0,4.0,82,0.00,,,0.00,Wunderground v.1.15,2013-03-15 08:01:00,
2013-03-15 03:07:00,37.6,32.9,30.00,WNW,298,2.0,4.0,83,0.00,,,0.00,Wunderground v.1.15,2013-03-15 08:07:00,
2013-03-15 03:13:00,37.6,32.9,29.99,WNW,298,1.0,4.0,83,0.00,,,0.00,Wunderground v.1.15,2013-03-15 08:13:00,
2013-03-15 03:19:00,37.8,33.1,30.00,WNW,298,0.0,4.0,83,0.00,,,0.00,Wunderground v.1.15,2013-03-15 08:19:00,
2013-03-15 03:26:00,37.8,32.8,29.99,WNW,298,0.0,4.0,82,0.00,,,0.00,Wunderground v.1.15,2013-03-15 08:26:00,
2013-03-15 03:41:00,37.3,33.2,29.99,WNW,298,0.0,4.0,85,0.00,,,0.00,Wunderground v.1.15,2013-03-15 08:41:00,
2013-03-15 03:47:00,37.7,33.3,29.99,WNW,298,0.0,4.0,84,0.00,,,0.00,Wunderground v.1.15,2013-03-15 08:47:00,
2013-03-15 03:52:00,37.6,32.9,29.99,WNW,298,0.0,4.0,83,0.00,,,0.00,Wunderground v.1.15,2013-03-15 08:52:00,
2013-03-15 03:58:00,37.3,32.9,29.98,WNW,298,0.0,4.0,84,0.00,,,0.00,Wunderground v.1.15,2013-03-15 08:58:00,
2013-03-15 04:12:00,37.9,34.4,29.97,WNW,298,0.0,4.0,87,0.00,,,0.00,Wunderground v.1.15,2013-03-15 09:12:00,
2013-03-15 04:17:00,37.4,33.3,29.97,WNW,298,0.0,4.0,85,0.00,,,0.00,Wunderground v.1.15,2013-03-15 09:17:00,
2013-03-15 04:22:00,36.4,32.3,29.97,WNW,298,1.0,4.0,85,0.00,,,0.00,Wunderground v.1.15,2013-03-15 09:22:00,
2013-03-15 04:28:00,35.3,32.1,29.97,WNW,298,1.0,4.0,88,0.00,,,0.00,Wunderground v.1.15,2013-03-15 09:28:00,
2013-03-15 04:34:00,34.9,31.7,29.97,WNW,298,1.0,4.0,88,0.00,,,0.00,Wunderground v.1.15,2013-03-15 09:34:00,
2013-03-15 04:40:00,34.1,30.9,29.96,WNW,298,0.0,4.0,88,0.00,,,0.00,Wunderground v.1.15,2013-03-15 09:40:00,
2013-03-15 04:45:00,33.7,30.8,29.97,WNW,298,0.0,4.0,89,0.00,,,0.00,Wunderground v.1.15,2013-03-15 09:45:00,
2013-03-15 04:50:00,33.4,30.8,29.97,WNW,298,0.0,4.0,90,0.00,,,0.00,Wunderground v.1.15,2013-03-15 09:50:00,
2013-03-15 04:57:00,33.2,30.9,29.96,WNW,298,0.0,4.0,91,0.00,,,0.00,Wunderground v.1.15,2013-03-15 09:57:00,
2013-03-15 05:02:00,33.6,31.5,29.96,WNW,298,0.0,4.0,92,0.00,,,0.00,Wunderground v.1.15,2013-03-15 10:02:00,
2013-03-15 05:08:00,33.9,31.8,29.96,WNW,298,0.0,4.0,92,0.00,,,0.00,Wunderground v.1.15,2013-03-15 10:08:00,
2013-03-15 05:13:00,34.0,31.9,29.96,WNW,298,0.0,4.0,92,0.00,,,0.00,Wunderground v.1.15,2013-03-15 10:13:00,
2013-03-15 05:19:00,34.3,32.5,29.96,WNW,298,0.0,4.0,93,0.00,,,0.00,Wunderground v.1.15,2013-03-15 10:19:00,
2013-03-15 05:26:00,34.6,32.8,29.96,WNW,298,0.0,4.0,93,0.00,,,0.00,Wunderground v.1.15,2013-03-15 10:26:00,
2013-03-15 05:32:00,34.8,33.0,29.96,WNW,298,0.0,4.0,93,0.00,,,0.00,Wunderground v.1.15,2013-03-15 10:32:00,
2013-03-15 05:37:00,35.0,33.2,29.96,WNW,298,1.0,4.0,93,0.00,,,0.00,Wunderground v.1.15,2013-03-15 10:37:00,
2013-03-15 05:43:00,34.5,32.4,29.96,WNW,298,1.0,4.0,92,0.00,,,0.00,Wunderground v.1.15,2013-03-15 10:43:00,
2013-03-15 05:49:00,34.1,32.0,29.97,WNW,298,1.0,4.0,92,0.00,,,0.00,Wunderground v.1.15,2013-03-15 10:49:00,
2013-03-15 05:54:00,33.9,31.8,29.97,WNW,298,0.0,4.0,92,0.00,,,0.00,Wunderground v.1.15,2013-03-15 10:54:00,
2013-03-15 06:00:00,34.1,32.3,29.97,WNW,298,0.0,4.0,93,0.00,,,0.00,Wunderground v.1.15,2013-03-15 11:00:00,
2013-03-15 06:05:00,34.3,32.5,29.97,WNW,298,0.0,4.0,93,0.00,,,0.00,Wunderground v.1.15,2013-03-15 11:05:00,
2013-03-15 06:10:00,34.4,32.6,29.97,WNW,298,0.0,4.0,93,0.00,,,0.00,Wunderground v.1.15,2013-03-15 11:10:00,
2013-03-15 06:16:00,34.6,33.1,29.97,WNW,298,1.0,4.0,94,0.00,,,0.00,Wunderground v.1.15,2013-03-15 11:16:00,
2013-03-15 06:21:00,34.5,32.7,29.97,WNW,298,1.0,4.0,93,0.00,,,0.00,Wunderground v.1.15,2013-03-15 11:21:00,
2013-03-15 06:27:00,34.6,32.8,29.97,WNW,298,0.0,4.0,93,0.00,,,0.00,Wunderground v.1.15,2013-03-15 11:27:00,
2013-03-15 06:32:00,34.3,32.5,29.97,WNW,298,0.0,4.0,93,0.00,,,0.00,Wunderground v.1.15,2013-03-15 11:32:00,
2013-03-15 06:37:00,33.3,31.0,29.96,WNW,298,0.0,4.0,91,0.00,,,0.00,Wunderground v.1.15,2013-03-15 11:37:00,
2013-03-15 06:43:00,32.4,30.3,29.96,WNW,298,0.0,4.0,92,0.00,,,0.00,Wunderground v.1.15,2013-03-15 11:43:00,
2013-03-15 06:48:00,32.3,30.5,29.96,WNW,298,0.0,4.0,93,0.00,,,0.00,Wunderground v.1.15,2013-03-15 11:48:00,
2013-03-15 06:57:00,32.3,30.5,29.96,WNW,298,1.0,4.0,93,0.00,,,0.00,Wunderground v.1.15,2013-03-15 11:57:00,
2013-03-15 07:03:00,32.2,30.4,29.96,WNW,298,1.0,4.0,93,0.00,,,0.00,Wunderground v.1.15,2013-03-15 12:03:00,
2013-03-15 07:08:00,32.6,31.1,29.96,WNW,298,0.0,4.0,94,0.00,,,0.00,Wunderground v.1.15,2013-03-15 12:08:00,
2013-03-15 07:14:00,33.4,32.1,29.96,WNW,298,0.0,4.0,95,0.00,,,0.00,Wunderground v.1.15,2013-03-15 12:14:00,
2013-03-15 07:20:00,33.7,32.4,29.96,WNW,298,0.0,4.0,95,0.00,,,0.00,Wunderground v.1.15,2013-03-15 12:20:00,
2013-03-15 07:26:00,33.2,31.7,29.96,WNW,298,0.0,4.0,94,0.00,,,0.00,Wunderground v.1.15,2013-03-15 12:26:00,
2013-03-15 07:31:00,33.5,32.2,29.95,WNW,298,0.0,4.0,95,0.00,,,0.00,Wunderground v.1.15,2013-03-15 12:31:00,
2013-03-15 07:37:00,33.7,32.4,29.95,WNW,298,0.0,4.0,95,0.00,,,0.00,Wunderground v.1.15,2013-03-15 12:37:00,
2013-03-15 07:42:00,33.8,32.5,29.95,WNW,298,0.0,4.0,95,0.00,,,0.00,Wunderground v.1.15,2013-03-15 12:42:00,
2013-03-15 07:47:00,33.7,32.2,29.95,WNW,298,0.0,4.0,94,0.00,,,0.00,Wunderground v.1.15,2013-03-15 12:47:00,
2013-03-15 07:53:00,33.7,32.2,29.95,WNW,298,1.0,4.0,94,0.00,,,0.00,Wunderground v.1.15,2013-03-15 12:53:00,
2013-03-15 07:59:00,33.8,32.5,29.95,WNW,298,1.0,4.0,95,0.00,,,0.00,Wunderground v.1.15,2013-03-15 12:59:00,
2013-03-15 08:04:00,34.1,32.8,29.95,WNW,298,0.0,4.0,95,0.00,,,0.00,Wunderground v.1.15,2013-03-15 13:04:00,
2013-03-15 08:10:00,34.5,33.2,29.95,WNW,298,0.0,4.0,95,0.00,,,0.00,Wunderground v.1.15,2013-03-15 13:10:00,
2013-03-15 08:16:00,34.4,32.9,29.95,WNW,298,0.0,4.0,94,0.00,,,0.00,Wunderground v.1.15,2013-03-15 13:16:00,
2013-03-15 08:21:00,34.4,32.9,29.95,WNW,298,0.0,4.0,94,0.00,,,0.00,Wunderground v.1.15,2013-03-15 13:21:00,
2013-03-15 08:26:00,34.6,33.1,29.95,WNW,298,0.0,4.0,94,0.00,,,0.00,Wunderground v.1.15,2013-03-15 13:26:00,
2013-03-15 08:31:00,34.8,33.2,29.95,WNW,298,0.0,4.0,94,0.00,,,0.00,Wunderground v.1.15,2013-03-15 13:31:00,
2013-03-15 08:37:00,35.1,33.5,29.94,WNW,298,0.0,4.0,94,0.00,,,0.00,Wunderground v.1.15,2013-03-15 13:37:00,
2013-03-15 08:42:00,35.3,34.0,29.94,WNW,298,1.0,4.0,95,0.00,,,0.00,Wunderground v.1.15,2013-03-15 13:42:00,
2013-03-15 08:48:00,35.9,34.6,29.94,WNW,298,0.0,4.0,95,0.00,,,0.00,Wunderground v.1.15,2013-03-15 13:48:00,
2013-03-15 08:54:00,36.6,35.3,29.95,WNW,298,0.0,4.0,95,0.00,,,0.00,Wunderground v.1.15,2013-03-15 13:54:00,
2013-03-15 08:59:00,37.4,36.1,29.94,WNW,298,0.0,4.0,95,0.00,,,0.00,Wunderground v.1.15,2013-03-15 13:59:00,
2013-03-15 09:05:00,38.0,36.4,29.94,WNW,298,0.0,4.0,94,0.00,,,0.00,Wunderground v.1.15,2013-03-15 14:05:00,
2013-03-15 09:10:00,38.7,37.1,29.94,WNW,298,0.0,4.0,94,0.00,,,0.00,Wunderground v.1.15,2013-03-15 14:10:00,
2013-03-15 09:15:00,39.3,37.4,29.95,WNW,298,1.0,4.0,93,0.00,,,0.00,Wunderground v.1.15,2013-03-15 14:15:00,
2013-03-15 09:21:00,40.0,37.9,29.95,WNW,298,1.0,4.0,92,0.00,,,0.00,Wunderground v.1.15,2013-03-15 14:21:00,
2013-03-15 09:26:00,40.7,38.6,29.94,SSW,213,2.0,4.0,92,0.00,,,0.00,Wunderground v.1.15,2013-03-15 14:26:00,
2013-03-15 09:32:00,41.6,38.9,29.95,SSW,211,1.0,4.0,90,0.00,,,0.00,Wunderground v.1.15,2013-03-15 14:32:00,
2013-03-15 09:38:00,42.3,39.3,29.94,SW,214,2.0,4.0,89,0.00,,,0.00,Wunderground v.1.15,2013-03-15 14:38:00,
2013-03-15 09:44:00,43.1,39.8,29.94,SSW,213,2.0,4.0,88,0.00,,,0.00,Wunderground v.1.15,2013-03-15 14:44:00,
2013-03-15 09:50:00,43.7,40.1,29.94,SSW,207,1.0,4.0,87,0.00,,,0.00,Wunderground v.1.15,2013-03-15 14:50:00,
2013-03-15 09:56:00,44.1,40.2,29.94,SSW,207,2.0,4.0,86,0.00,,,0.00,Wunderground v.1.15,2013-03-15 14:56:00,
2013-03-15 10:02:00,44.5,40.6,29.94,SSW,207,1.0,4.0,86,0.00,,,0.00,Wunderground v.1.15,2013-03-15 15:02:00,
2013-03-15 10:11:00,45.5,41.6,29.94,SSW,207,1.0,4.0,86,0.00,,,0.00,Wunderground v.1.15,2013-03-15 15:11:00,
2013-03-15 10:17:00,46.1,41.5,29.93,South,169,1.0,4.0,84,0.00,,,0.00,Wunderground v.1.15,2013-03-15 15:17:00,
2013-03-15 10:23:00,46.4,41.2,29.93,SSE,149,2.0,4.0,82,0.00,,,0.00,Wunderground v.1.15,2013-03-15 15:23:00,
2013-03-15 10:28:00,46.4,41.2,29.92,SSE,149,2.0,4.0,82,0.00,,,0.00,Wunderground v.1.15,2013-03-15 15:28:00,
2013-03-15 10:37:00,47.1,41.9,29.92,SE,144,3.0,4.0,82,0.00,,,0.00,Wunderground v.1.15,2013-03-15 15:37:00,
2013-03-15 10:43:00,47.7,42.2,29.92,SSE,154,2.0,4.0,81,0.00,,,0.00,Wunderground v.1.15,2013-03-15 15:43:00,
2013-03-15 10:48:00,48.0,42.1,29.92,SSE,155,2.0,5.0,80,0.00,,,0.00,Wunderground v.1.15,2013-03-15 15:48:00,
2013-03-15 10:55:00,48.4,42.5,29.92,SSE,158,2.0,4.0,80,0.00,,,0.00,Wunderground v.1.15,2013-03-15 15:55:00,
2013-03-15 11:05:00,49.7,43.8,29.92,SSE,158,1.0,4.0,80,0.00,,,0.00,Wunderground v.1.15,2013-03-15 16:05:00,
2013-03-15 11:10:00,50.3,44.0,29.91,SSE,161,1.0,4.0,79,0.00,,,0.00,Wunderground v.1.15,2013-03-15 16:10:00,
2013-03-15 11:16:00,51.1,44.5,29.91,SSE,159,2.0,5.0,78,0.00,,,0.00,Wunderground v.1.15,2013-03-15 16:16:00,
2013-03-15 11:21:00,51.8,45.2,29.91,South,175,2.0,4.0,78,0.00,,,0.00,Wunderground v.1.15,2013-03-15 16:21:00,
2013-03-15 11:27:00,52.6,45.6,29.90,South,173,2.0,4.0,77,0.00,,,0.00,Wunderground v.1.15,2013-03-15 16:27:00,
2013-03-15 11:33:00,53.5,46.1,29.90,SSW,212,2.0,4.0,76,0.00,,,0.00,Wunderground v.1.15,2013-03-15 16:33:00,
2013-03-15 11:39:00,54.4,46.3,29.90,SSW,205,1.0,4.0,74,0.00,,,0.00,Wunderground v.1.15,2013-03-15 16:39:00,
2013-03-15 11:45:00,55.3,46.4,29.89,WSW,239,2.0,5.0,72,0.00,,,0.00,Wunderground v.1.15,2013-03-15 16:45:00,
2013-03-15 11:51:00,56.1,46.4,29.89,SSW,200,2.0,4.0,70,0.00,,,0.00,Wunderground v.1.15,2013-03-15 16:51:00,
2013-03-15 11:57:00,57.0,46.9,29.88,SSW,211,2.0,4.0,69,0.00,,,0.00,Wunderground v.1.15,2013-03-15 16:57:00,
2013-03-15 12:02:00,57.5,46.2,29.88,SSW,211,2.0,4.0,66,0.00,,,0.00,Wunderground v.1.15,2013-03-15 17:02:00,
2013-03-15 12:08:00,58.6,47.3,29.87,SSW,205,2.0,6.0,66,0.00,,,0.00,Wunderground v.1.15,2013-03-15 17:08:00,
2013-03-15 12:13:00,59.3,47.5,29.87,SSW,207,3.0,4.0,65,0.00,,,0.00,Wunderground v.1.15,2013-03-15 17:13:00,
2013-03-15 12:19:00,60.0,47.8,29.87,SSW,198,3.0,5.0,64,0.00,,,0.00,Wunderground v.1.15,2013-03-15 17:19:00,
2013-03-15 12:27:00,60.8,49.0,29.86,SSW,201,3.0,5.0,65,0.00,,,0.00,Wunderground v.1.15,2013-03-15 17:27:00,
2013-03-15 12:33:00,61.2,47.6,29.85,South,191,3.0,5.0,61,0.00,,,0.00,Wunderground v.1.15,2013-03-15 17:33:00,
2013-03-15 12:39:00,61.6,48.0,29.85,SW,223,4.0,5.0,61,0.00,,,0.00,Wunderground v.1.15,2013-03-15 17:39:00,
2013-03-15 12:45:00,61.8,48.2,29.84,SW,215,4.0,8.0,61,0.00,,,0.00,Wunderground v.1.15,2013-03-15 17:45:00,
2013-03-15 12:50:00,62.1,48.5,29.84,SW,234,5.0,6.0,61,0.00,,,0.00,Wunderground v.1.15,2013-03-15 17:50:00,
2013-03-15 12:55:00,62.0,48.8,29.83,South,191,5.0,8.0,62,0.00,,,0.00,Wunderground v.1.15,2013-03-15 17:55:00,
2013-03-15 13:01:00,62.3,48.7,29.83,WSW,243,5.0,7.0,61,0.00,,,0.00,Wunderground v.1.15,2013-03-15 18:01:00,
2013-03-15 13:07:00,62.7,48.2,29.82,WSW,242,7.0,8.0,59,0.00,,,0.00,Wunderground v.1.15,2013-03-15 18:07:00,
2013-03-15 13:13:00,62.7,48.2,29.81,WSW,239,7.0,8.0,59,0.00,,,0.00,Wunderground v.1.15,2013-03-15 18:13:00,
2013-03-15 13:18:00,62.9,49.2,29.81,SW,233,7.0,9.0,61,0.00,,,0.00,Wunderground v.1.15,2013-03-15 18:18:00,
2013-03-15 13:24:00,63.4,49.3,29.81,SW,222,5.0,9.0,60,0.00,,,0.00,Wunderground v.1.15,2013-03-15 18:24:00,
2013-03-15 13:29:00,63.5,48.0,29.80,SSW,206,5.0,9.0,57,0.00,,,0.00,Wunderground v.1.15,2013-03-15 18:29:00,
2013-03-15 13:35:00,64.3,49.7,29.80,West,262,6.0,10.0,59,0.00,,,0.00,Wunderground v.1.15,2013-03-15 18:35:00,
2013-03-15 13:41:00,64.7,49.6,29.79,SW,234,6.0,9.0,58,0.00,,,0.00,Wunderground v.1.15,2013-03-15 18:41:00,
2013-03-15 13:47:00,64.7,47.7,29.79,WSW,239,6.0,9.0,54,0.00,,,0.00,Wunderground v.1.15,2013-03-15 18:47:00,
2013-03-15 13:53:00,64.5,47.5,29.78,WSW,239,7.0,11.0,54,0.00,,,0.00,Wunderground v.1.15,2013-03-15 18:53:00,
2013-03-15 13:58:00,64.9,49.3,29.77,SSW,200,7.0,11.0,57,0.00,,,0.00,Wunderground v.1.15,2013-03-15 18:58:00,
2013-03-15 14:13:00,66.9,51.2,29.75,WSW,253,8.0,8.0,57,0.00,,,0.00,Wunderground v.1.15,2013-03-15 19:13:00,
2013-03-15 14:21:00,67.4,48.6,29.75,SW,233,7.0,9.0,51,0.00,,,0.00,Wunderground v.1.15,2013-03-15 19:21:00,
2013-03-15 14:29:00,67.1,48.9,29.73,SW,234,8.0,10.0,52,0.00,,,0.00,Wunderground v.1.15,2013-03-15 19:29:00,
2013-03-15 14:34:00,67.1,50.9,29.73,WSW,242,8.0,10.0,56,0.00,,,0.00,Wunderground v.1.15,2013-03-15 19:34:00,
2013-03-15 14:39:00,67.6,51.3,29.72,WSW,248,8.0,14.0,56,0.00,,,0.00,Wunderground v.1.15,2013-03-15 19:39:00,
2013-03-15 14:45:00,68.3,52.0,29.71,SW,232,9.0,13.0,56,0.00,,,0.00,Wunderground v.1.15,2013-03-15 19:45:00,
2013-03-15 14:59:00,67.9,49.1,29.70,West,261,11.0,13.0,51,0.00,,,0.00,Wunderground v.1.15,2013-03-15 19:59:00,
2013-03-15 15:05:00,68.0,49.2,29.70,WSW,246,11.0,14.0,51,0.00,,,0.00,Wunderground v.1.15,2013-03-15 20:05:00,
2013-03-15 15:10:00,68.0,50.2,29.70,SW,225,11.0,11.0,53,0.00,,,0.00,Wunderground v.1.15,2013-03-15 20:10:00,
2013-03-15 15:17:00,67.8,50.0,29.69,WSW,240,12.0,15.0,53,0.00,,,0.00,Wunderground v.1.15,2013-03-15 20:17:00,
2013-03-15 15:23:00,67.7,50.9,29.69,SW,230,12.0,13.0,55,0.00,,,0.00,Wunderground v.1.15,2013-03-15 20:23:00,
2013-03-15 15:29:00,67.8,51.5,29.69,SW,232,11.0,15.0,56,0.00,,,0.00,Wunderground v.1.15,2013-03-15 20:29:00,
2013-03-15 15:35:00,67.7,50.5,29.68,SW,236,11.0,15.0,54,0.00,,,0.00,Wunderground v.1.15,2013-03-15 20:35:00,
2013-03-15 15:41:00,68.0,50.7,29.68,SW,224,11.0,11.0,54,0.00,,,0.00,Wunderground v.1.15,2013-03-15 20:41:00,
2013-03-15 15:47:00,68.3,52.0,29.67,WSW,248,10.0,11.0,56,0.00,,,0.00,Wunderground v.1.15,2013-03-15 20:47:00,
2013-03-15 15:53:00,68.4,52.1,29.67,WSW,250,10.0,10.0,56,0.00,,,0.00,Wunderground v.1.15,2013-03-15 20:53:00,
2013-03-15 15:58:00,68.3,51.5,29.68,WSW,246,9.0,11.0,55,0.00,,,0.00,Wunderground v.1.15,2013-03-15 20:58:00,
2013-03-15 16:04:00,68.6,52.3,29.68,WSW,253,8.0,8.0,56,0.00,,,0.00,Wunderground v.1.15,2013-03-15 21:04:00,
2013-03-15 16:10:00,69.0,53.1,29.67,WSW,250,8.0,8.0,57,0.00,,,0.00,Wunderground v.1.15,2013-03-15 21:10:00,
2013-03-15 16:15:00,69.4,52.5,29.67,West,272,9.0,13.0,55,0.00,,,0.00,Wunderground v.1.15,2013-03-15 21:15:00,
2013-03-15 16:21:00,69.6,51.2,29.68,West,263,11.0,11.0,52,0.00,,,0.00,Wunderground v.1.15,2013-03-15 21:21:00,
2013-03-15 16:26:00,69.8,50.9,29.68,WNW,294,10.0,12.0,51,0.00,,,0.00,Wunderground v.1.15,2013-03-15 21:26:00,
2013-03-15 16:43:00,69.2,52.3,29.67,West,277,8.0,9.0,55,0.00,,,0.00,Wunderground v.1.15,2013-03-15 21:43:00,
2013-03-15 16:49:00,69.5,53.1,29.67,West,279,7.0,9.0,56,0.00,,,0.00,Wunderground v.1.15,2013-03-15 21:49:00,
2013-03-15 16:54:00,70.1,52.7,29.67,West,272,7.0,10.0,54,0.00,,,0.00,Wunderground v.1.15,2013-03-15 21:54:00,
2013-03-15 17:00:00,70.4,52.4,29.66,WNW,285,8.0,9.0,53,0.00,,,0.00,Wunderground v.1.15,2013-03-15 22:00:00,
2013-03-15 17:06:00,70.6,52.6,29.66,WNW,283,7.0,9.0,53,0.00,,,0.00,Wunderground v.1.15,2013-03-15 22:06:00,
2013-03-15 17:13:00,70.6,51.6,29.66,WNW,284,7.0,10.0,51,0.00,,,0.00,Wunderground v.1.15,2013-03-15 22:13:00,
2013-03-15 17:18:00,70.6,52.1,29.66,NW,304,7.0,10.0,52,0.00,,,0.00,Wunderground v.1.15,2013-03-15 22:18:00,
2013-03-15 17:24:00,70.6,52.6,29.66,West,277,6.0,7.0,53,0.00,,,0.00,Wunderground v.1.15,2013-03-15 22:24:00,
2013-03-15 17:29:00,70.8,53.3,29.66,West,274,5.0,7.0,54,0.00,,,0.00,Wunderground v.1.15,2013-03-15 22:29:00,
2013-03-15 17:35:00,70.4,53.5,29.66,West,274,2.0,4.0,55,0.00,,,0.00,Wunderground v.1.15,2013-03-15 22:35:00,
2013-03-15 17:40:00,70.3,53.9,29.65,West,274,1.0,1.0,56,0.00,,,0.00,Wunderground v.1.15,2013-03-15 22:40:00,
2013-03-15 17:47:00,70.1,54.2,29.65,West,274,1.0,4.0,57,0.00,,,0.00,Wunderground v.1.15,2013-03-15 22:47:00,
2013-03-15 17:53:00,69.8,53.4,29.65,West,275,1.0,4.0,56,0.00,,,0.00,Wunderground v.1.15,2013-03-15 22:53:00,
2013-03-15 17:58:00,69.9,53.5,29.65,West,274,0.0,4.0,56,0.00,,,0.00,Wunderground v.1.15,2013-03-15 22:58:00,
2013-03-15 18:03:00,70.0,52.1,29.65,West,274,0.0,4.0,53,0.00,,,0.00,Wunderground v.1.15,2013-03-15 23:03:00,
2013-03-15 18:08:00,70.1,53.2,29.64,West,274,0.0,4.0,55,0.00,,,0.00,Wunderground v.1.15,2013-03-15 23:08:00,
2013-03-15 18:13:00,70.0,54.1,29.65,West,274,0.0,4.0,57,0.00,,,0.00,Wunderground v.1.15,2013-03-15 23:13:00,
2013-03-15 18:18:00,69.2,54.7,29.65,West,274,0.0,4.0,60,0.00,,,0.00,Wunderground v.1.15,2013-03-15 23:18:00,
2013-03-15 18:24:00,68.5,54.5,29.64,West,275,0.0,4.0,61,0.00,,,0.00,Wunderground v.1.15,2013-03-15 23:24:00,
2013-03-15 18:30:00,67.7,54.6,29.64,West,274,0.0,4.0,63,0.00,,,0.00,Wunderground v.1.15,2013-03-15 23:30:00,
2013-03-15 18:36:00,67.0,54.4,29.64,West,274,0.0,4.0,64,0.00,,,0.00,Wunderground v.1.15,2013-03-15 23:36:00,
2013-03-15 18:42:00,66.9,53.5,29.64,West,275,0.0,4.0,62,0.00,,,0.00,Wunderground v.1.15,2013-03-15 23:42:00,
2013-03-15 18:47:00,66.8,53.4,29.64,West,274,0.0,4.0,62,0.00,,,0.00,Wunderground v.1.15,2013-03-15 23:47:00,
2013-03-15 18:53:00,66.6,52.3,29.64,West,274,0.0,4.0,60,0.00,,,0.00,Wunderground v.1.15,2013-03-15 23:53:00,
2013-03-15 18:58:00,66.5,51.7,29.64,West,274,0.0,4.0,59,0.00,,,0.00,Wunderground v.1.15,2013-03-15 23:58:00,
2013-03-15 19:04:00,66.3,51.5,29.63,West,274,0.0,4.0,59,0.00,,,0.00,Wunderground v.1.15,2013-03-16 00:04:00,
2013-03-15 19:10:00,66.1,51.8,29.64,West,274,0.0,4.0,60,0.00,,,0.00,Wunderground v.1.15,2013-03-16 00:10:00,
2013-03-15 19:15:00,65.9,51.2,29.64,West,274,0.0,4.0,59,0.00,,,0.00,Wunderground v.1.15,2013-03-16 00:15:00,
2013-03-15 19:21:00,65.5,50.8,29.64,West,274,0.0,4.0,59,0.00,,,0.00,Wunderground v.1.15,2013-03-16 00:21:00,
2013-03-15 19:27:00,65.6,50.9,29.64,West,274,0.0,4.0,59,0.00,,,0.00,Wunderground v.1.15,2013-03-16 00:27:00,
2013-03-15 19:32:00,65.9,51.6,29.65,West,274,0.0,4.0,60,0.00,,,0.00,Wunderground v.1.15,2013-03-16 00:32:00,
2013-03-15 19:38:00,63.9,52.7,29.65,East,96,3.0,6.0,67,0.00,,,0.00,Wunderground v.1.15,2013-03-16 00:38:00,
2013-03-15 19:43:00,62.1,52.2,29.65,East,99,5.0,5.0,70,0.00,,,0.00,Wunderground v.1.15,2013-03-16 00:43:00,
2013-03-15 19:48:00,61.2,52.1,29.64,East,95,5.0,6.0,72,0.00,,,0.00,Wunderground v.1.15,2013-03-16 00:48:00,
2013-03-15 19:54:00,60.1,51.4,29.64,ESE,107,5.0,7.0,73,0.00,,,0.00,Wunderground v.1.15,2013-03-16 00:54:00,
2013-03-15 19:59:00,59.7,51.0,29.65,East,99,6.0,7.0,73,0.00,,,0.00,Wunderground v.1.15,2013-03-16 00:59:00,
2013-03-15 20:05:00,59.0,50.7,29.64,ESE,102,5.0,6.0,74,0.00,,,0.00,Wunderground v.1.15,2013-03-16 01:05:00,
2013-03-15 20:11:00,58.3,50.4,29.64,ESE,103,5.0,5.0,75,0.00,,,0.00,Wunderground v.1.15,2013-03-16 01:11:00,
2013-03-15 20:16:00,57.6,50.1,29.64,East,94,4.0,5.0,76,0.00,,,0.00,Wunderground v.1.15,2013-03-16 01:16:00,
2013-03-15 20:22:00,57.2,49.7,29.64,East,96,4.0,4.0,76,0.00,,,0.00,Wunderground v.1.15,2013-03-16 01:22:00,
2013-03-15 20:28:00,56.9,49.4,29.64,East,96,4.0,4.0,76,0.00,,,0.00,Wunderground v.1.15,2013-03-16 01:28:00,
2013-03-15 20:33:00,56.6,49.1,29.64,East,96,2.0,4.0,76,0.00,,,0.00,Wunderground v.1.15,2013-03-16 01:33:00,
2013-03-15 20:39:00,56.3,48.8,29.64,East,96,2.0,4.0,76,0.00,,,0.00,Wunderground v.1.15,2013-03-16 01:39:00,
2013-03-15 20:44:00,55.8,48.7,29.65,East,87,3.0,4.0,77,0.00,,,0.00,Wunderground v.1.15,2013-03-16 01:44:00,
2013-03-15 20:50:00,55.7,48.6,29.65,East,87,2.0,2.0,77,0.00,,,0.00,Wunderground v.1.15,2013-03-16 01:50:00,
2013-03-15 21:01:00,55.4,48.3,29.65,East,87,0.0,4.0,77,0.00,,,0.00,Wunderground v.1.15,2013-03-16 02:01:00,
2013-03-15 21:07:00,55.1,48.4,29.65,East,87,1.0,4.0,78,0.00,,,0.00,Wunderground v.1.15,2013-03-16 02:07:00,
2013-03-15 21:13:00,55.1,48.0,29.65,East,87,3.0,4.0,77,0.00,,,0.00,Wunderground v.1.15,2013-03-16 02:13:00,
2013-03-15 21:18:00,54.8,47.7,29.66,NE,56,3.0,5.0,77,0.00,,,0.00,Wunderground v.1.15,2013-03-16 02:18:00,
2013-03-15 21:23:00,54.6,47.9,29.66,NW,313,3.0,4.0,78,0.00,,,0.00,Wunderground v.1.15,2013-03-16 02:23:00,
2013-03-15 21:29:00,54.5,47.8,29.65,NNW,335,3.0,5.0,78,0.00,,,0.00,Wunderground v.1.15,2013-03-16 02:29:00,
2013-03-15 21:34:00,54.3,47.6,29.66,ENE,61,2.0,4.0,78,0.00,,,0.00,Wunderground v.1.15,2013-03-16 02:34:00,
2013-03-15 21:40:00,54.2,47.5,29.66,ENE,61,1.0,4.0,78,0.00,,,0.00,Wunderground v.1.15,2013-03-16 02:40:00,
2013-03-15 21:46:00,54.1,47.4,29.65,ENE,61,1.0,4.0,78,0.00,,,0.00,Wunderground v.1.15,2013-03-16 02:46:00,
2013-03-15 21:51:00,53.9,47.2,29.65,ENE,61,1.0,1.0,78,0.00,,,0.00,Wunderground v.1.15,2013-03-16 02:51:00,
2013-03-15 21:57:00,53.7,47.3,29.65,ENE,61,0.0,4.0,79,0.00,,,0.00,Wunderground v.1.15,2013-03-16 02:57:00,
2013-03-15 22:02:00,53.4,47.0,29.65,ENE,61,1.0,4.0,79,0.00,,,0.00,Wunderground v.1.15,2013-03-16 03:02:00,
2013-03-15 22:08:00,53.2,46.9,29.65,ENE,61,2.0,4.0,79,0.00,,,0.00,Wunderground v.1.15,2013-03-16 03:08:00,
2013-03-15 22:13:00,53.1,46.8,29.65,ESE,112,2.0,4.0,79,0.00,,,0.00,Wunderground v.1.15,2013-03-16 03:13:00,
2013-03-15 22:19:00,52.7,46.7,29.65,NW,312,1.0,4.0,80,0.00,,,0.00,Wunderground v.1.15,2013-03-16 03:19:00,
2013-03-15 22:24:00,52.4,46.4,29.65,NW,312,0.0,4.0,80,0.00,,,0.00,Wunderground v.1.15,2013-03-16 03:24:00,
2013-03-15 22:30:00,52.3,46.6,29.65,ENE,63,1.0,4.0,81,0.00,,,0.00,Wunderground v.1.15,2013-03-16 03:30:00,
2013-03-15 22:35:00,52.2,46.5,29.65,ENE,63,1.0,4.0,81,0.00,,,0.00,Wunderground v.1.15,2013-03-16 03:35:00,
2013-03-15 22:42:00,52.2,46.2,29.65,ENE,63,0.0,4.0,80,0.00,,,0.00,Wunderground v.1.15,2013-03-16 03:42:00,
2013-03-15 22:48:00,52.0,46.0,29.65,ENE,63,1.0,4.0,80,0.00,,,0.00,Wunderground v.1.15,2013-03-16 03:48:00,
2013-03-15 22:53:00,51.7,45.7,29.65,ENE,63,2.0,4.0,80,0.00,,,0.00,Wunderground v.1.15,2013-03-16 03:53:00,
2013-03-15 22:58:00,51.3,45.7,29.65,ENE,63,2.0,4.0,81,0.00,,,0.00,Wunderground v.1.15,2013-03-16 03:58:00,
2013-03-15 23:00:00,51.2,45.6,29.65,ENE,63,1.0,1.0,81,0.00,,,0.00,Wunderground v.1.15,2013-03-16 04:00:00,
2013-03-15 23:02:00,51.2,45.6,29.65,ENE,63,0.0,4.0,81,0.00,,,0.00,Wunderground v.1.15,2013-03-16 04:02:00,
2013-03-15 23:06:00,51.1,45.5,29.65,ENE,63,0.0,4.0,81,0.00,,,0.00,Wunderground v.1.15,2013-03-16 04:06:00,
2013-03-15 23:09:00,51.0,45.7,29.65,ENE,63,0.0,4.0,82,0.00,,,0.00,Wunderground v.1.15,2013-03-16 04:09:00,
2013-03-15 23:14:00,50.9,45.6,29.65,ENE,63,1.0,4.0,82,0.00,,,0.00,Wunderground v.1.15,2013-03-16 04:14:00,
2013-03-15 23:20:00,50.8,45.5,29.64,ENE,63,1.0,1.0,82,0.00,,,0.00,Wunderground v.1.15,2013-03-16 04:20:00,
2013-03-15 23:25:00,50.8,45.5,29.64,ENE,63,0.0,4.0,82,0.00,,,0.00,Wunderground v.1.15,2013-03-16 04:25:00,
2013-03-15 23:31:00,50.7,45.4,29.64,ENE,63,1.0,4.0,82,0.00,,,0.00,Wunderground v.1.15,2013-03-16 04:31:00,
2013-03-15 23:37:00,50.3,45.3,29.64,ENE,63,2.0,4.0,83,0.00,,,0.00,Wunderground v.1.15,2013-03-16 04:37:00,
2013-03-15 23:43:00,50.1,45.1,29.63,ENE,63,1.0,4.0,83,0.00,,,0.00,Wunderground v.1.15,2013-03-16 04:43:00,
2013-03-15 23:48:00,49.9,44.9,29.63,ENE,63,0.0,4.0,83,0.00,,,0.00,Wunderground v.1.15,2013-03-16 04:48:00,
2013-03-15 23:54:00,49.8,44.8,29.63,ENE,63,0.0,4.0,83,0.00,,,0.00,Wunderground v.1.15,2013-03-16 04:54:00,
2013-03-15 23:59:00,49.7,44.7,29.63,ENE,63,0.0,4.0,83,0.00,,,0.00,Wunderground v.1.15,2013-03-16 04:59:00,